| time (UTC) | temp C | wind direction | speed KPH | gust KPH | rain 1hr cm | rain 24hr cm | rain mn cm | humidity % | barometer mb |
| 20260905012408 | 16 | 284 | 6.4 | 29.0 | 0.00 | 0.13 | 0.00 | 45 | 1015.5 |
| 20260905011407 | 16 | 269 | 6.4 | 20.9 | 0.00 | 0.13 | 0.00 | 44 | 1015.5 |
| 20260905010407 | 16 | 308 | 8.0 | 24.1 | 0.00 | 0.13 | 0.00 | 44 | 1015.5 |
| 20260905005410 | 16 | 296 | 6.4 | 24.1 | 0.00 | 0.13 | 0.00 | 44 | 1015.5 |
| 20260905004408 | 16 | 238 | 1.6 | 29.0 | 0.00 | 0.13 | 0.00 | 44 | 1015.4 |
| 20260905003407 | 16 | 290 | 12.9 | 30.6 | 0.00 | 0.13 | 0.00 | 43 | 1015.4 |
| 20260905002408 | 17 | 281 | 17.7 | 30.6 | 0.00 | 0.13 | 0.00 | 41 | 1015.3 |
| 20260905001407 | 17 | 258 | 11.3 | 25.7 | 0.00 | 0.13 | 0.00 | 42 | 1015.4 |
| 20260905000409 | 16 | 274 | 11.3 | 19.3 | 0.00 | 0.13 | 0.00 | 42 | 1015.4 |
| 20260904235407 | 16 | 282 | 6.4 | 25.7 | 0.00 | 0.13 | 0.00 | 42 | 1015.6 |
| 20260904234407 | 17 | 276 | 14.5 | 27.4 | 0.00 | 0.13 | 0.00 | 42 | 1015.7 |
| 20260904233407 | 17 | 268 | 14.5 | 24.1 | 0.00 | 0.13 | 0.00 | 41 | 1015.6 |
| 20260904232407 | 17 | 263 | 9.7 | 32.2 | 0.00 | 0.13 | 0.00 | 41 | 1015.7 |
| 20260904230909 | 17 | 294 | 12.9 | 20.9 | 0.00 | 0.13 | 0.13 | 38 | 1015.7 |
| 20260904225907 | 17 | 266 | 11.3 | 27.4 | 0.00 | 0.13 | 0.13 | 38 | 1015.8 |
| 20260904224907 | 17 | 255 | 11.3 | 22.5 | 0.00 | 0.13 | 0.13 | 37 | 1015.8 |
| 20260904223908 | 17 | 279 | 11.3 | 24.1 | 0.00 | 0.13 | 0.13 | 38 | 1015.7 |
| 20260904222909 | 17 | 259 | 4.8 | 27.4 | 0.00 | 0.13 | 0.13 | 42 | 1015.8 |
| 20260904221007 | 17 | 265 | 16.1 | 32.2 | 0.00 | 0.13 | 0.13 | 39 | 1015.9 |
| 20260904220006 | 17 | 256 | 11.3 | 20.9 | 0.00 | 0.13 | 0.13 | 44 | 1016.0 |
| 20260904215014 | 17 | 239 | 12.9 | 32.2 | 0.00 | 0.13 | 0.13 | 43 | 1016.1 |
| 20260904214006 | 17 | 222 | 4.8 | 20.9 | 0.00 | 0.13 | 0.13 | 45 | 1016.1 |
| 20260904213007 | 17 | 246 | 12.9 | 38.6 | 0.00 | 0.13 | 0.13 | 38 | 1016.1 |
| 20260904212008 | 16 | 262 | 12.9 | 27.4 | 0.00 | 0.13 | 0.13 | 47 | 1016.2 |
| 20260904211006 | 16 | 258 | 16.1 | 30.6 | 0.00 | 0.13 | 0.13 | 47 | 1016.2 |
| 20260904210006 | 17 | 272 | 12.9 | 24.1 | 0.00 | 0.13 | 0.13 | 48 | 1016.4 |
| 20260904205006 | 16 | 263 | 8.0 | 27.4 | 0.00 | 0.13 | 0.13 | 48 | 1016.5 |
| 20260904204007 | 16 | 260 | 9.7 | 22.5 | 0.00 | 0.13 | 0.13 | 52 | 1016.5 |
| 20260904203006 | 16 | 262 | 8.0 | 25.7 | 0.00 | 0.13 | 0.13 | 50 | 1016.5 |
| 20260904202006 | 16 | 280 | 12.9 | 27.4 | 0.00 | 0.13 | 0.13 | 48 | 1016.6 |
| 20260904201006 | 16 | 254 | 9.7 | 22.5 | 0.00 | 0.13 | 0.13 | 51 | 1016.6 |
| 20260904200006 | 16 | 273 | 8.0 | 20.9 | 0.00 | 0.13 | 0.13 | 53 | 1016.7 |
| 20260904195006 | 16 | 254 | 8.0 | 22.5 | 0.00 | 0.13 | 0.13 | 48 | 1016.8 |
| 20260904194006 | 16 | 275 | 8.0 | 22.5 | 0.00 | 0.13 | 0.13 | 44 | 1016.9 |
| 20260904193008 | 16 | 254 | 9.7 | 24.1 | 0.00 | 0.13 | 0.13 | 40 | 1016.9 |
| 20260904192007 | 16 | 262 | 8.0 | 17.7 | 0.00 | 0.13 | 0.13 | 46 | 1017.1 |
| 20260904191006 | 15 | 250 | 3.2 | 24.1 | 0.00 | 0.13 | 0.13 | 41 | 1017.0 |
| 20260904190007 | 16 | 243 | 8.0 | 22.5 | 0.00 | 0.13 | 0.13 | 55 | 1017.1 |
| 20260904185006 | 16 | 287 | 6.4 | 16.1 | 0.00 | 0.13 | 0.13 | 45 | 1017.2 |
| 20260904184006 | 15 | 254 | 4.8 | 20.9 | 0.00 | 0.13 | 0.13 | 50 | 1017.3 |
| 20260904183006 | 15 | 267 | 6.4 | 19.3 | 0.00 | 0.13 | 0.13 | 60 | 1017.2 |
| 20260904182006 | 15 | 252 | 6.4 | 16.1 | 0.00 | 0.13 | 0.13 | 60 | 1017.3 |
| 20260904181006 | 14 | 277 | 9.7 | 17.7 | 0.00 | 0.13 | 0.13 | 59 | 1017.4 |
| 20260904180008 | 14 | 269 | 6.4 | 17.7 | 0.00 | 0.13 | 0.13 | 65 | 1017.4 |
| 20260904175006 | 14 | 263 | 11.3 | 20.9 | 0.00 | 0.13 | 0.13 | 72 | 1017.5 |
| 20260904174009 | 13 | 242 | 4.8 | 14.5 | 0.00 | 0.13 | 0.13 | 73 | 1017.5 |
| 20260904173006 | 13 | 212 | 6.4 | 17.7 | 0.00 | 0.13 | 0.13 | 75 | 1017.4 |
| 20260904172007 | 12 | 267 | 12.9 | 19.3 | 0.00 | 0.13 | 0.13 | 76 | 1017.4 |
| 20260904171006 | 12 | 262 | 11.3 | 24.1 | 0.00 | 0.13 | 0.13 | 78 | 1017.3 |
| 20260904170006 | 12 | 256 | 8.0 | 19.3 | 0.00 | 0.13 | 0.13 | 78 | 1017.2 |
| 20260904165006 | 12 | 256 | 11.3 | 22.5 | 0.00 | 0.13 | 0.13 | 78 | 1017.1 |
| 20260904164007 | 12 | 262 | 11.3 | 20.9 | 0.00 | 0.13 | 0.13 | 79 | 1017.1 |
| 20260904163006 | 11 | 266 | 19.3 | 25.7 | 0.00 | 0.13 | 0.13 | 79 | 1016.9 |
| 20260904162006 | 12 | 276 | 8.0 | 22.5 | 0.00 | 0.13 | 0.13 | 79 | 1016.8 |
| 20260904161006 | 12 | 278 | 14.5 | 20.9 | 0.00 | 0.13 | 0.13 | 79 | 1016.8 |
| 20260904160006 | 11 | 278 | 12.9 | 22.5 | 0.00 | 0.13 | 0.13 | 79 | 1016.8 |
| 20260904155006 | 11 | 266 | 12.9 | 24.1 | 0.00 | 0.13 | 0.13 | 79 | 1016.7 |
| 20260904154006 | 12 | 249 | 6.4 | 25.7 | 0.00 | 0.13 | 0.13 | 79 | 1016.7 |
| 20260904153006 | 11 | 269 | 9.7 | 24.1 | 0.00 | 0.13 | 0.13 | 79 | 1016.6 |
| 20260904152006 | 11 | 270 | 9.7 | 27.4 | 0.00 | 0.13 | 0.13 | 79 | 1016.5 |
| 20260904151006 | 11 | 268 | 14.5 | 25.7 | 0.00 | 0.13 | 0.13 | 79 | 1016.4 |
| 20260904150007 | 11 | 266 | 22.5 | 30.6 | 0.00 | 0.13 | 0.13 | 79 | 1016.3 |
| 20260904145007 | 11 | 266 | 16.1 | 35.4 | 0.00 | 0.13 | 0.13 | 79 | 1016.3 |
| 20260904144007 | 12 | 270 | 14.5 | 29.0 | 0.00 | 0.13 | 0.13 | 79 | 1016.2 |
| 20260904143006 | 12 | 255 | 19.3 | 33.8 | 0.00 | 0.13 | 0.13 | 79 | 1016.1 |
| 20260904142006 | 11 | 260 | 24.1 | 37.0 | 0.00 | 0.13 | 0.13 | 79 | 1016.0 |
| 20260904141006 | 11 | 271 | 17.7 | 32.2 | 0.00 | 0.13 | 0.13 | 79 | 1016.0 |
| 20260904140006 | 11 | 276 | 20.9 | 30.6 | 0.00 | 0.13 | 0.13 | 79 | 1015.8 |
| 20260904135006 | 11 | 262 | 14.5 | 27.4 | 0.00 | 0.13 | 0.13 | 79 | 1015.7 |
| 20260904134006 | 11 | 279 | 14.5 | 29.0 | 0.00 | 0.13 | 0.13 | 79 | 1015.7 |
| 20260904133007 | 11 | 276 | 19.3 | 32.2 | 0.00 | 0.13 | 0.13 | 79 | 1015.6 |
| 20260904132006 | 11 | 261 | 14.5 | 30.6 | 0.00 | 0.13 | 0.13 | 79 | 1015.5 |
| 20260904131006 | 11 | 250 | 16.1 | 30.6 | 0.00 | 0.13 | 0.13 | 79 | 1015.4 |
| 20260904130007 | 11 | 254 | 16.1 | 29.0 | 0.00 | 0.13 | 0.13 | 79 | 1015.2 |
| 20260904125006 | 12 | 250 | 17.7 | 29.0 | 0.00 | 0.13 | 0.13 | 79 | 1015.1 |
| 20260904124006 | 11 | 253 | 16.1 | 35.4 | 0.00 | 0.13 | 0.13 | 79 | 1015.1 |
| 20260904123006 | 12 | 244 | 16.1 | 33.8 | 0.00 | 0.13 | 0.13 | 79 | 1014.9 |
| 20260904122009 | 12 | 260 | 19.3 | 33.8 | 0.00 | 0.13 | 0.13 | 78 | 1014.8 |
| 20260904121006 | 12 | 252 | 19.3 | 38.6 | 0.00 | 0.13 | 0.13 | 79 | 1014.8 |
| 20260904120006 | 12 | 263 | 24.1 | 40.2 | 0.00 | 0.13 | 0.13 | 78 | 1014.8 |
| 20260904115006 | 12 | 246 | 19.3 | 33.8 | 0.00 | 0.13 | 0.13 | 78 | 1014.8 |
| 20260904114006 | 12 | 258 | 20.9 | 32.2 | 0.00 | 0.13 | 0.13 | 79 | 1014.8 |
| 20260904113006 | 12 | 261 | 22.5 | 37.0 | 0.00 | 0.13 | 0.13 | 79 | 1014.8 |
| 20260904112006 | 12 | 247 | 17.7 | 33.8 | 0.00 | 0.13 | 0.13 | 78 | 1014.8 |
| 20260904111006 | 12 | 251 | 22.5 | 40.2 | 0.00 | 0.13 | 0.13 | 78 | 1014.8 |
| 20260904110006 | 12 | 267 | 27.4 | 41.8 | 0.00 | 0.13 | 0.13 | 78 | 1014.7 |
| 20260904104907 | 12 | 255 | 30.6 | 43.5 | 0.00 | 0.13 | 0.13 | 78 | 1014.6 |
| 20260904103907 | 12 | 261 | 30.6 | 45.1 | 0.00 | 0.13 | 0.13 | 78 | 1014.5 |
| 20260904102907 | 12 | 263 | 30.6 | 43.5 | 0.00 | 0.13 | 0.13 | 78 | 1014.6 |
| 20260904101907 | 12 | 262 | 27.4 | 41.8 | 0.00 | 0.13 | 0.13 | 78 | 1014.6 |
| 20260904100907 | 12 | 256 | 29.0 | 43.5 | 0.00 | 0.13 | 0.13 | 78 | 1014.5 |
| 20260904095908 | 12 | 266 | 32.2 | 41.8 | 0.00 | 0.13 | 0.13 | 78 | 1014.5 |
| 20260904094907 | 12 | 261 | 27.4 | 43.5 | 0.00 | 0.13 | 0.13 | 78 | 1014.5 |
| 20260904093907 | 12 | 263 | 25.7 | 41.8 | 0.00 | 0.13 | 0.13 | 78 | 1014.5 |
| 20260904092909 | 12 | 262 | 25.7 | 33.8 | 0.00 | 0.13 | 0.13 | 78 | 1014.5 |
| 20260904091907 | 12 | 260 | 22.5 | 41.8 | 0.00 | 0.13 | 0.13 | 78 | 1014.6 |
| 20260904090907 | 12 | 265 | 24.1 | 38.6 | 0.00 | 0.13 | 0.13 | 78 | 1014.6 |
| 20260904085909 | 12 | 262 | 27.4 | 38.6 | 0.00 | 0.13 | 0.13 | 78 | 1014.5 |
| 20260904084907 | 12 | 268 | 27.4 | 41.8 | 0.00 | 0.13 | 0.13 | 78 | 1014.7 |
| 20260904083907 | 12 | 263 | 29.0 | 43.5 | 0.00 | 0.13 | 0.13 | 78 | 1014.8 |
| 20260904082907 | 12 | 261 | 27.4 | 40.2 | 0.00 | 0.13 | 0.13 | 78 | 1014.8 |
| 20260904081907 | 12 | 260 | 25.7 | 43.5 | 0.00 | 0.13 | 0.13 | 78 | 1014.9 |
| 20260904080908 | 12 | 266 | 27.4 | 43.5 | 0.00 | 0.13 | 0.13 | 78 | 1014.9 |
| 20260904075907 | 12 | 259 | 22.5 | 35.4 | 0.00 | 0.13 | 0.13 | 78 | 1015.2 |
| 20260904074907 | 12 | 262 | 24.1 | 35.4 | 0.13 | 0.13 | 0.13 | 77 | 1015.3 |
| 20260904073907 | 12 | 260 | 20.9 | 37.0 | 0.13 | 0.13 | 0.13 | 77 | 1015.3 |
| 20260904072907 | 12 | 262 | 19.3 | 33.8 | 0.13 | 0.13 | 0.13 | 77 | 1015.3 |
| 20260904071907 | 12 | 257 | 17.7 | 29.0 | 0.13 | 0.13 | 0.13 | 77 | 1015.4 |
| 20260904070907 | 12 | 256 | 20.9 | 32.2 | 0.13 | 0.13 | 0.13 | 77 | 1015.4 |
| 20260904065907 | 12 | 275 | 19.3 | 41.8 | 0.13 | 0.13 | 0.13 | 77 | 1015.4 |
| 20260904064907 | 12 | 268 | 20.9 | 33.8 | 0.00 | 0.00 | 0.00 | 77 | 1015.2 |
| 20260904063907 | 12 | 248 | 17.7 | 35.4 | 0.00 | 0.00 | 0.00 | 76 | 1015.3 |
| 20260904062907 | 12 | 249 | 20.9 | 30.6 | 0.00 | 0.00 | 0.00 | 76 | 1015.2 |
| 20260904061907 | 12 | 242 | 20.9 | 30.6 | 0.00 | 0.00 | 0.00 | 75 | 1015.1 |
| 20260904060907 | 12 | 241 | 16.1 | 27.4 | 0.00 | 0.00 | 0.00 | 74 | 1015.1 |
| 20260904055907 | 12 | 251 | 19.3 | 33.8 | 0.00 | 0.00 | 0.00 | 74 | 1015.1 |
| 20260904054907 | 12 | 249 | 17.7 | 27.4 | 0.00 | 0.00 | 0.00 | 73 | 1015.1 |
| 20260904053908 | 12 | 254 | 20.9 | 30.6 | 0.00 | 0.00 | 0.00 | 72 | 1015.2 |
| 20260904052908 | 13 | 248 | 17.7 | 25.7 | 0.00 | 0.00 | 0.00 | 68 | 1015.2 |
| 20260904051907 | 13 | 244 | 12.9 | 20.9 | 0.00 | 0.00 | 0.00 | 66 | 1015.3 |
| 20260904050907 | 13 | 246 | 11.3 | 19.3 | 0.00 | 0.00 | 0.00 | 64 | 1015.3 |
| 20260904045907 | 13 | 244 | 14.5 | 22.5 | 0.00 | 0.00 | 0.00 | 62 | 1015.2 |
| 20260904044907 | 13 | 236 | 9.7 | 14.5 | 0.00 | 0.00 | 0.00 | 63 | 1015.3 |
| 20260904043909 | 13 | 234 | 9.7 | 14.5 | 0.00 | 0.00 | 0.00 | 62 | 1015.3 |
| 20260904042907 | 13 | 232 | 8.0 | 14.5 | 0.00 | 0.00 | 0.00 | 69 | 1015.3 |
| 20260904041907 | 12 | 214 | 9.7 | 16.1 | 0.00 | 0.00 | 0.00 | 73 | 1015.4 |
| 20260904040908 | 13 | 228 | 6.4 | 14.5 | 0.00 | 0.00 | 0.00 | 71 | 1015.4 |
| 20260904035907 | 13 | 235 | 6.4 | 17.7 | 0.00 | 0.00 | 0.00 | 68 | 1015.4 |
| 20260904034907 | 13 | 230 | 9.7 | 14.5 | 0.00 | 0.00 | 0.00 | 65 | 1015.3 |
| 20260904033908 | 13 | 238 | 8.0 | 16.1 | 0.00 | 0.00 | 0.00 | 63 | 1015.2 |
| 20260904032907 | 13 | 245 | 12.9 | 19.3 | 0.00 | 0.00 | 0.00 | 61 | 1015.1 |
| 20260904031908 | 13 | 243 | 12.9 | 22.5 | 0.00 | 0.00 | 0.00 | 60 | 1015.1 |
| 20260904030910 | 13 | 256 | 8.0 | 20.9 | 0.00 | 0.00 | 0.00 | 60 | 1015.0 |
| 20260904025907 | 14 | 252 | 11.3 | 17.7 | 0.00 | 0.00 | 0.00 | 60 | 1014.9 |
| 20260904024907 | 14 | 250 | 11.3 | 19.3 | 0.00 | 0.00 | 0.00 | 59 | 1014.8 |
| 20260904023907 | 14 | 255 | 12.9 | 22.5 | 0.00 | 0.00 | 0.00 | 58 | 1014.7 |
| 20260904022907 | 14 | 258 | 11.3 | 22.5 | 0.00 | 0.00 | 0.00 | 58 | 1014.6 |
| 20260904021907 | 14 | 252 | 12.9 | 19.3 | 0.00 | 0.00 | 0.00 | 57 | 1014.7 |
| 20260904020907 | 14 | 255 | 9.7 | 17.7 | 0.00 | 0.00 | 0.00 | 57 | 1014.8 |
| 20260904015907 | 14 | 256 | 11.3 | 16.1 | 0.00 | 0.00 | 0.00 | 55 | 1014.8 |
| 20260904014907 | 15 | 266 | 9.7 | 14.5 | 0.00 | 0.00 | 0.00 | 54 | 1014.7 |
| 20260904013908 | 15 | 282 | 8.0 | 12.9 | 0.00 | 0.00 | 0.00 | 53 | 1014.5 |
| 20260904012907 | 15 | 283 | 6.4 | 11.3 | 0.00 | 0.00 | 0.00 | 52 | 1014.6 |